APX357 KBNA-KPHL

Flight info

Callsign APX357
Flight time 1h 21m
Altitude 45000
Route CHADM4 MUNNY DCT TONIO Q34 GVE PAATS4
Aircraft C750/M-SDE3FGHIRWY/LB1

Departure

Time 2026-05-08 03:32
Airport Nashville International Airport (KBNA)

Arrival

Time 2026-05-08 04:54
Airport Philadelphia International Airport (KPHL)
Time Latitude Longitude Altitude Speed Heading
2026-05-08 02:55 36.12056 -86.67317 573 ft 0 kts 188°
2026-05-08 03:17 36.12075 -86.67311 574 ft 4 kts 220°
2026-05-08 03:18 36.12085 -86.67286 573 ft 3 kts 271°
2026-05-08 03:18 36.12085 -86.67277 573 ft 0 kts 273°
2026-05-08 03:24 36.12085 -86.67283 573 ft 1 kts 272°
2026-05-08 03:24 36.12086 -86.67296 573 ft 4 kts 272°
2026-05-08 03:24 36.12099 -86.67351 576 ft 9 kts 293°
2026-05-08 03:24 36.12147 -86.67402 576 ft 10 kts 355°
2026-05-08 03:25 36.12233 -86.67394 577 ft 11 kts 18°
2026-05-08 03:25 36.12223 -86.67337 576 ft 10 kts 130°
2026-05-08 03:25 36.12205 -86.67235 574 ft 17 kts 53°
2026-05-08 03:25 36.12240 -86.67199 572 ft 5 kts 40°
2026-05-08 03:26 36.12293 -86.67138 571 ft 15 kts 46°
2026-05-08 03:26 36.12380 -86.67031 571 ft 15 kts 55°
2026-05-08 03:26 36.12338 -86.66933 568 ft 14 kts 134°
2026-05-08 03:26 36.12287 -86.66840 570 ft 12 kts 106°
2026-05-08 03:27 36.12261 -86.66743 567 ft 12 kts 109°
2026-05-08 03:27 36.12233 -86.66639 567 ft 14 kts 108°
2026-05-08 03:27 36.12189 -86.66548 565 ft 10 kts 166°
2026-05-08 03:27 36.12139 -86.66563 574 ft 6 kts 200°
2026-05-08 03:28 36.12091 -86.66583 571 ft 9 kts 198°
2026-05-08 03:28 36.12017 -86.66613 573 ft 14 kts 197°
2026-05-08 03:28 36.11906 -86.66657 576 ft 20 kts 198°
2026-05-08 03:28 36.11771 -86.66709 581 ft 19 kts 197°
2026-05-08 03:29 36.11658 -86.66755 583 ft 16 kts 198°
2026-05-08 03:29 36.11559 -86.66796 585 ft 14 kts 198°
2026-05-08 03:29 36.11478 -86.66828 588 ft 11 kts 198°
2026-05-08 03:29 36.11414 -86.66854 589 ft 10 kts 198°
2026-05-08 03:30 36.11309 -86.66861 587 ft 0 kts 109°
2026-05-08 03:30 36.11300 -86.66826 587 ft 7 kts 107°
2026-05-08 03:31 36.11306 -86.66754 587 ft 1 kts 14°
2026-05-08 03:31 36.11406 -86.66717 587 ft 24 kts 17°
2026-05-08 03:32 36.11922 -86.66510 576 ft 131 kts 18°
2026-05-08 03:32 36.12856 -86.66139 1064 ft 141 kts 17°
2026-05-08 03:32 36.13824 -86.65738 1739 ft 152 kts 19°
2026-05-08 03:32 36.14825 -86.65247 2525 ft 158 kts 21°
2026-05-08 03:33 36.15754 -86.64477 3217 ft 171 kts 44°
2026-05-08 03:33 36.16542 -86.63304 3955 ft 181 kts 51°
2026-05-08 03:33 36.17356 -86.62078 4877 ft 189 kts 47°
2026-05-08 03:33 36.18286 -86.60882 5763 ft 197 kts 42°
2026-05-08 03:34 36.19322 -86.59687 6543 ft 214 kts 41°
2026-05-08 03:34 36.20427 -86.58286 7056 ft 242 kts 44°
2026-05-08 03:34 36.21605 -86.56631 7570 ft 271 kts 50°
2026-05-08 03:34 36.22247 -86.54329 8256 ft 295 kts 85°
2026-05-08 03:35 36.21962 -86.51820 9394 ft 300 kts 103°
2026-05-08 03:35 36.21314 -86.49310 10232 ft 311 kts 109°
2026-05-08 03:35 36.20580 -86.46680 10596 ft 336 kts 108°
2026-05-08 03:35 36.19882 -86.43802 10803 ft 362 kts 104°
2026-05-08 03:36 36.19641 -86.40607 10973 ft 382 kts 88°
2026-05-08 03:36 36.19754 -86.37319 11733 ft 385 kts 85°
2026-05-08 03:36 36.19851 -86.33962 12319 ft 395 kts 88°
2026-05-08 03:36 36.19847 -86.30527 12932 ft 404 kts 89°
2026-05-08 03:37 36.19840 -86.27013 13539 ft 412 kts 88°
2026-05-08 03:37 36.19892 -86.23437 14125 ft 419 kts 87°
2026-05-08 03:37 36.19951 -86.19808 14748 ft 424 kts 88°
2026-05-08 03:37 36.19975 -86.16136 15349 ft 429 kts 89°
2026-05-08 03:38 36.19984 -86.13679 15740 ft 433 kts 89°
2026-05-08 03:38 36.20012 -86.09933 16396 ft 437 kts 88°
2026-05-08 03:38 36.20298 -86.06125 16965 ft 441 kts 77°
2026-05-08 03:38 36.21004 -86.02469 17647 ft 444 kts 73°
2026-05-08 03:39 36.21725 -85.98734 18348 ft 449 kts 74°
2026-05-08 03:39 36.22425 -85.94947 18944 ft 454 kts 74°
2026-05-08 03:39 36.23138 -85.91114 19559 ft 459 kts 74°
2026-05-08 03:39 36.23878 -85.87243 20194 ft 464 kts 73°
2026-05-08 03:40 36.24623 -85.83333 20844 ft 469 kts 74°
2026-05-08 03:40 36.25369 -85.79375 21473 ft 474 kts 73°
2026-05-08 03:40 36.26390 -85.75481 22054 ft 477 kts 66°
2026-05-08 03:40 36.27518 -85.71599 22705 ft 482 kts 66°
2026-05-08 03:41 36.28623 -85.67655 23326 ft 487 kts 67°
2026-05-08 03:41 36.29732 -85.63667 23897 ft 492 kts 67°
2026-05-08 03:41 36.30878 -85.59638 24327 ft 499 kts 66°
2026-05-08 03:41 36.32046 -85.55561 24765 ft 506 kts 66°
2026-05-08 03:42 36.33215 -85.51414 25185 ft 513 kts 66°
2026-05-08 03:42 36.34420 -85.47091 25657 ft 519 kts 66°
2026-05-08 03:42 36.35652 -85.42856 26056 ft 524 kts 64°
2026-05-08 03:42 36.36996 -85.38617 26464 ft 532 kts 63°
2026-05-08 03:43 36.38343 -85.34320 26903 ft 538 kts 64°
2026-05-08 03:43 36.39687 -85.29953 27330 ft 545 kts 64°
2026-05-08 03:43 36.41051 -85.25537 27821 ft 551 kts 64°
2026-05-08 03:43 36.42441 -85.21086 28266 ft 556 kts 63°
2026-05-08 03:44 36.43845 -85.16583 28666 ft 562 kts 64°
2026-05-08 03:44 36.45250 -85.12024 29099 ft 568 kts 64°
2026-05-08 03:44 36.46664 -85.07420 29537 ft 573 kts 64°
2026-05-08 03:44 36.48099 -85.02774 29919 ft 580 kts 63°
2026-05-08 03:45 36.49555 -84.98070 30264 ft 586 kts 63°
2026-05-08 03:45 36.51149 -84.93409 30550 ft 585 kts 57°
2026-05-08 03:45 36.52992 -84.88892 30930 ft 588 kts 56°
2026-05-08 03:45 36.54821 -84.84330 31414 ft 590 kts 57°
2026-05-08 03:46 36.56627 -84.79746 31947 ft 591 kts 57°
2026-05-08 03:46 36.58454 -84.75162 32405 ft 592 kts 56°
2026-05-08 03:46 36.60306 -84.70579 32896 ft 593 kts 56°
2026-05-08 03:46 36.62149 -84.65982 33385 ft 595 kts 56°
2026-05-08 03:47 36.63979 -84.61347 33978 ft 596 kts 56°
2026-05-08 03:47 36.65807 -84.56715 34496 ft 596 kts 56°
2026-05-08 03:47 36.67649 -84.52098 35054 ft 594 kts 55°
2026-05-08 03:47 36.69484 -84.47496 35640 ft 593 kts 56°
2026-05-08 03:48 36.71302 -84.42892 36194 ft 592 kts 56°
2026-05-08 03:48 36.73111 -84.38293 36762 ft 590 kts 56°
2026-05-08 03:48 36.74921 -84.33707 37359 ft 588 kts 55°
2026-05-08 03:48 36.76729 -84.29137 37938 ft 587 kts 55°
2026-05-08 03:49 36.78527 -84.24571 38569 ft 585 kts 55°
2026-05-08 03:49 36.80311 -84.20018 39136 ft 583 kts 56°
2026-05-08 03:49 36.82087 -84.15486 39699 ft 580 kts 56°
2026-05-08 03:49 36.83856 -84.10980 40295 ft 576 kts 56°
2026-05-08 03:50 36.85610 -84.06499 40988 ft 572 kts 57°
2026-05-08 03:50 36.87344 -84.02056 41664 ft 567 kts 57°
2026-05-08 03:50 36.89067 -83.97640 42205 ft 565 kts 57°
2026-05-08 03:50 36.90785 -83.93237 42771 ft 562 kts 57°
2026-05-08 03:51 36.92489 -83.88859 43330 ft 559 kts 58°
2026-05-08 03:51 36.94182 -83.84499 43857 ft 557 kts 58°
2026-05-08 03:51 36.95869 -83.80148 44388 ft 555 kts 58°
2026-05-08 03:51 36.97551 -83.75810 44868 ft 553 kts 58°
2026-05-08 03:52 36.99226 -83.71485 45055 ft 557 kts 58°
2026-05-08 03:52 37.02645 -83.62641 45057 ft 572 kts 59°
2026-05-08 03:53 37.06143 -83.53548 45112 ft 587 kts 59°
2026-05-08 03:53 37.09725 -83.44222 45067 ft 600 kts 59°
2026-05-08 03:54 37.13355 -83.34730 45060 ft 608 kts 59°
2026-05-08 03:54 37.16999 -83.25184 45051 ft 614 kts 60°
2026-05-08 03:55 37.20684 -83.15495 45057 ft 617 kts 60°
2026-05-08 03:55 37.24379 -83.05753 45057 ft 619 kts 60°
2026-05-08 03:56 37.27574 -82.95647 45066 ft 625 kts 67°
2026-05-08 03:56 37.30410 -82.85336 45051 ft 624 kts 66°
2026-05-08 03:57 37.33396 -82.75094 45048 ft 625 kts 67°
2026-05-08 03:57 37.36248 -82.64774 45055 ft 625 kts 67°
2026-05-08 03:58 37.39185 -82.54498 45065 ft 624 kts 67°
2026-05-08 03:58 37.42045 -82.44193 45031 ft 624 kts 67°
2026-05-08 03:59 37.44935 -82.33900 45022 ft 625 kts 67°
2026-05-08 03:59 37.47796 -82.23587 45023 ft 623 kts 68°
2026-05-08 04:00 37.50652 -82.13287 45029 ft 623 kts 67°
2026-05-08 04:00 37.53499 -82.02979 45029 ft 623 kts 68°
2026-05-08 04:01 37.56332 -81.92656 45036 ft 624 kts 67°
2026-05-08 04:01 37.59167 -81.82327 45040 ft 623 kts 68°
2026-05-08 04:02 37.61977 -81.72002 45035 ft 623 kts 67°
2026-05-08 04:02 37.64794 -81.61651 45025 ft 624 kts 68°
2026-05-08 04:03 37.67581 -81.51324 45032 ft 620 kts 68°
2026-05-08 04:03 37.71747 -81.35865 45052 ft 620 kts 68°
2026-05-08 04:04 37.74490 -81.25615 45062 ft 621 kts 68°
2026-05-08 04:04 37.77231 -81.15264 45054 ft 621 kts 70°
2026-05-08 04:05 37.78747 -81.04486 45057 ft 626 kts 84°
2026-05-08 04:05 37.79210 -80.93490 45068 ft 626 kts 86°
2026-05-08 04:06 37.80083 -80.82541 45055 ft 627 kts 83°
2026-05-08 04:06 37.80724 -80.71526 45052 ft 628 kts 86°
2026-05-08 04:07 37.81459 -80.60514 45042 ft 628 kts 83°
2026-05-08 04:07 37.82158 -80.49560 45046 ft 624 kts 85°
2026-05-08 04:08 37.82820 -80.38592 45047 ft 627 kts 84°
2026-05-08 04:08 37.83527 -80.27603 45048 ft 627 kts 85°
2026-05-08 04:09 37.84159 -80.16593 45077 ft 628 kts 85°
2026-05-08 04:09 37.84848 -80.05554 45011 ft 630 kts 85°
2026-05-08 04:10 37.85472 -79.94481 45016 ft 631 kts 85°
2026-05-08 04:10 37.86129 -79.83409 45007 ft 631 kts 85°
2026-05-08 04:11 37.86722 -79.72307 45007 ft 633 kts 86°
2026-05-08 04:11 37.87105 -79.61171 45084 ft 633 kts 86°
2026-05-08 04:12 37.87486 -79.50114 45092 ft 634 kts 87°
2026-05-08 04:12 37.87846 -79.38962 45093 ft 633 kts 87°
2026-05-08 04:13 37.88578 -79.27878 45062 ft 631 kts 80°
2026-05-08 04:13 37.89987 -79.16906 45037 ft 631 kts 79°
2026-05-08 04:14 37.91187 -79.05890 44998 ft 631 kts 81°
2026-05-08 04:14 37.92503 -78.94938 44974 ft 629 kts 79°
2026-05-08 04:15 37.93731 -78.83974 44974 ft 629 kts 81°
2026-05-08 04:15 37.94986 -78.73008 44976 ft 629 kts 80°
2026-05-08 04:16 37.96221 -78.62047 44962 ft 628 kts 81°
2026-05-08 04:16 37.97438 -78.51082 44974 ft 628 kts 81°
2026-05-08 04:17 37.98661 -78.40117 44973 ft 629 kts 81°
2026-05-08 04:17 37.99855 -78.29139 44970 ft 629 kts 81°
2026-05-08 04:18 38.01057 -78.18166 44972 ft 628 kts 81°
2026-05-08 04:18 38.02232 -78.07189 44976 ft 628 kts 82°
2026-05-08 04:19 38.03403 -77.96278 45000 ft 628 kts 82°
2026-05-08 04:19 38.04558 -77.85319 44982 ft 627 kts 82°
2026-05-08 04:20 38.05710 -77.74364 44975 ft 626 kts 82°
2026-05-08 04:20 38.06847 -77.63402 44974 ft 626 kts 82°
2026-05-08 04:21 38.07975 -77.52452 44965 ft 626 kts 82°
2026-05-08 04:21 38.09090 -77.41515 44970 ft 615 kts 82°
2026-05-08 04:22 38.09598 -77.36251 44937 ft 588 kts 85°
2026-05-08 04:22 38.09954 -77.31186 44868 ft 566 kts 82°
2026-05-08 04:22 38.10409 -77.27963 44584 ft 556 kts 76°
2026-05-08 04:22 38.11481 -77.23273 43577 ft 552 kts 66°
2026-05-08 04:23 38.13033 -77.18831 42394 ft 549 kts 57°
2026-05-08 04:23 38.15037 -77.14728 41269 ft 544 kts 47°
2026-05-08 04:23 38.17435 -77.11064 40169 ft 535 kts 37°
2026-05-08 04:23 38.20163 -77.07922 39187 ft 523 kts 28°
2026-05-08 04:24 38.23138 -77.05363 38037 ft 509 kts 18°
2026-05-08 04:24 38.26276 -77.03423 36681 ft 495 kts
2026-05-08 04:24 38.29497 -77.01997 35340 ft 487 kts
2026-05-08 04:24 38.32731 -77.00731 34012 ft 487 kts
2026-05-08 04:25 38.35963 -76.99371 32383 ft 493 kts
2026-05-08 04:25 38.39174 -76.97650 30633 ft 510 kts 14°
2026-05-08 04:25 38.42301 -76.95399 29023 ft 520 kts 20°
2026-05-08 04:25 38.45300 -76.92899 27736 ft 510 kts 23°
2026-05-08 04:26 38.48225 -76.90453 26391 ft 495 kts 21°
2026-05-08 04:26 38.51184 -76.88330 25129 ft 480 kts 17°
2026-05-08 04:26 38.54122 -76.86423 23882 ft 470 kts 16°
2026-05-08 04:26 38.56989 -76.84450 22489 ft 466 kts 20°
2026-05-08 04:27 38.59778 -76.82436 21192 ft 455 kts 20°
2026-05-08 04:27 38.62533 -76.80544 19991 ft 444 kts 19°
2026-05-08 04:27 38.65230 -76.78668 18782 ft 439 kts 22°
2026-05-08 04:27 38.67791 -76.76581 17493 ft 436 kts 30°
2026-05-08 04:28 38.69913 -76.73786 16265 ft 439 kts 49°
2026-05-08 04:28 38.71365 -76.70453 15168 ft 432 kts 66°
2026-05-08 04:28 38.72211 -76.66814 14107 ft 422 kts 75°
2026-05-08 04:28 38.72921 -76.63224 13006 ft 411 kts 75°
2026-05-08 04:29 38.73633 -76.59738 12029 ft 398 kts 73°
2026-05-08 04:29 38.74341 -76.56431 11616 ft 371 kts 73°
2026-05-08 04:29 38.74980 -76.53355 11383 ft 345 kts 73°
2026-05-08 04:29 38.75574 -76.50452 11169 ft 332 kts 73°
2026-05-08 04:30 38.76170 -76.47589 10954 ft 332 kts 72°
2026-05-08 04:30 38.76765 -76.44743 10751 ft 329 kts 72°
2026-05-08 04:30 38.77348 -76.41921 10554 ft 327 kts 72°
2026-05-08 04:30 38.77927 -76.39116 10362 ft 325 kts 72°
2026-05-08 04:31 38.78501 -76.36336 10178 ft 320 kts 72°
2026-05-08 04:31 38.79069 -76.33587 9984 ft 318 kts 71°
2026-05-08 04:31 38.79633 -76.30850 9788 ft 317 kts 71°
2026-05-08 04:31 38.80192 -76.28133 9574 ft 315 kts 71°
2026-05-08 04:32 38.80748 -76.25429 9361 ft 313 kts 71°
2026-05-08 04:32 38.81300 -76.22740 9149 ft 311 kts 71°
2026-05-08 04:32 38.81849 -76.20063 8932 ft 309 kts 71°
2026-05-08 04:32 38.82392 -76.17408 8716 ft 307 kts 71°
2026-05-08 04:33 38.82932 -76.14768 8511 ft 305 kts 71°
2026-05-08 04:33 38.83469 -76.12140 8312 ft 304 kts 71°
2026-05-08 04:33 38.84001 -76.09527 8114 ft 301 kts 72°
2026-05-08 04:33 38.84527 -76.06942 8043 ft 300 kts 72°
2026-05-08 04:34 38.85056 -76.04351 8051 ft 301 kts 71°
2026-05-08 04:34 38.85583 -76.01756 8052 ft 301 kts 72°
2026-05-08 04:34 38.86111 -75.99156 8054 ft 301 kts 72°
2026-05-08 04:34 38.86638 -75.96558 8056 ft 301 kts 72°
2026-05-08 04:35 38.87164 -75.93954 8052 ft 301 kts 72°
2026-05-08 04:35 38.87683 -75.91388 8037 ft 301 kts 72°
2026-05-08 04:35 38.88209 -75.88787 8040 ft 301 kts 72°
2026-05-08 04:35 38.88735 -75.86186 8037 ft 301 kts 71°
2026-05-08 04:36 38.89565 -75.83775 7959 ft 291 kts 49°
2026-05-08 04:36 38.91012 -75.82026 8032 ft 285 kts 32°
2026-05-08 04:36 38.92611 -75.80528 8034 ft 284 kts 30°
2026-05-08 04:36 38.94220 -75.79043 8034 ft 285 kts 30°
2026-05-08 04:37 38.95813 -75.77537 8022 ft 285 kts 31°
2026-05-08 04:37 38.97404 -75.76026 8020 ft 284 kts 31°
2026-05-08 04:37 38.98999 -75.74519 8002 ft 284 kts 31°
2026-05-08 04:37 39.00592 -75.73018 8002 ft 284 kts 31°
2026-05-08 04:38 39.02183 -75.71515 7998 ft 284 kts 31°
2026-05-08 04:38 39.03773 -75.70010 7996 ft 284 kts 31°
2026-05-08 04:38 39.05373 -75.68527 7988 ft 282 kts 28°
2026-05-08 04:38 39.07163 -75.67692 7965 ft 271 kts
2026-05-08 04:39 39.09034 -75.67467 7999 ft 270 kts 359°
2026-05-08 04:39 39.10905 -75.67279 8004 ft 270 kts 359°
2026-05-08 04:39 39.12777 -75.67075 8001 ft 270 kts 360°
2026-05-08 04:39 39.14645 -75.66867 8000 ft 270 kts 360°
2026-05-08 04:40 39.16515 -75.66662 7997 ft 270 kts 360°
2026-05-08 04:40 39.18386 -75.66459 7999 ft 270 kts 360°
2026-05-08 04:40 39.20257 -75.66255 7997 ft 270 kts 360°
2026-05-08 04:40 39.22129 -75.66050 7995 ft 270 kts 360°
2026-05-08 04:41 39.23999 -75.65845 7993 ft 270 kts 360°
2026-05-08 04:41 39.25872 -75.65641 7992 ft 270 kts 360°
2026-05-08 04:41 39.27741 -75.65399 7978 ft 272 kts
2026-05-08 04:41 39.29505 -75.64437 7971 ft 282 kts 27°
2026-05-08 04:42 39.31133 -75.63014 8003 ft 283 kts 29°
2026-05-08 04:42 39.32759 -75.61579 7998 ft 283 kts 29°
2026-05-08 04:42 39.34390 -75.60163 7997 ft 283 kts 28°
2026-05-08 04:42 39.36025 -75.58748 7995 ft 283 kts 28°
2026-05-08 04:43 39.37653 -75.57327 7998 ft 282 kts 29°
2026-05-08 04:43 39.39142 -75.55645 7936 ft 291 kts 48°
2026-05-08 04:43 39.40214 -75.53461 8002 ft 293 kts 54°
2026-05-08 04:43 39.41295 -75.51231 8006 ft 292 kts 53°
2026-05-08 04:44 39.42394 -75.49021 7999 ft 293 kts 53°
2026-05-08 04:44 39.43489 -75.46804 7997 ft 292 kts 53°
2026-05-08 04:44 39.44574 -75.44583 8000 ft 292 kts 53°
2026-05-08 04:44 39.45663 -75.42359 7998 ft 292 kts 53°
2026-05-08 04:45 39.46754 -75.40134 8002 ft 293 kts 53°
2026-05-08 04:45 39.47844 -75.37908 8001 ft 293 kts 53°
2026-05-08 04:45 39.48935 -75.35678 7845 ft 294 kts 53°
2026-05-08 04:45 39.50029 -75.33452 7476 ft 290 kts 53°
2026-05-08 04:46 39.51376 -75.31587 7068 ft 280 kts 36°
2026-05-08 04:46 39.52882 -75.30006 6732 ft 278 kts 35°
2026-05-08 04:46 39.54368 -75.28412 6373 ft 277 kts 37°
2026-05-08 04:46 39.55836 -75.26805 5993 ft 276 kts 37°
2026-05-08 04:47 39.57300 -75.25210 5628 ft 274 kts 37°
2026-05-08 04:47 39.58761 -75.23629 5266 ft 273 kts 37°
2026-05-08 04:47 39.60218 -75.22050 4909 ft 272 kts 37°
2026-05-08 04:47 39.61667 -75.20475 4538 ft 271 kts 37°
2026-05-08 04:48 39.63110 -75.18905 4174 ft 270 kts 38°
2026-05-08 04:48 39.64542 -75.17348 3825 ft 265 kts 38°
2026-05-08 04:48 39.65917 -75.15849 3477 ft 252 kts 38°
2026-05-08 04:48 39.67272 -75.14501 3126 ft 239 kts 28°
2026-05-08 04:49 39.68825 -75.14028 2830 ft 223 kts 356°
2026-05-08 04:49 39.70265 -75.14446 2928 ft 203 kts 337°
2026-05-08 04:49 39.71542 -75.15081 2982 ft 187 kts 336°
2026-05-08 04:49 39.72731 -75.15661 2900 ft 178 kts 336°
2026-05-08 04:50 39.73864 -75.16220 2180 ft 180 kts 336°
2026-05-08 04:50 39.75028 -75.16798 1775 ft 177 kts 336°
2026-05-08 04:50 39.76192 -75.17357 1786 ft 179 kts 337°
2026-05-08 04:50 39.77368 -75.17917 1768 ft 179 kts 335°
2026-05-08 04:51 39.78523 -75.18540 1745 ft 178 kts 334°
2026-05-08 04:51 39.79586 -75.19104 1600 ft 157 kts 335°
2026-05-08 04:51 39.80582 -75.19594 1323 ft 151 kts 336°
2026-05-08 04:51 39.81532 -75.20033 1061 ft 136 kts 338°
2026-05-08 04:52 39.82385 -75.20409 873 ft 126 kts 338°
2026-05-08 04:52 39.83211 -75.20821 691 ft 130 kts 334°
2026-05-08 04:52 39.84072 -75.21266 494 ft 134 kts 332°
2026-05-08 04:52 39.84919 -75.21707 394 ft 128 kts 336°
2026-05-08 04:53 39.85740 -75.22084 330 ft 123 kts 336°
2026-05-08 04:53 39.86553 -75.22508 153 ft 128 kts 335°
2026-05-08 04:53 39.87377 -75.22917 31 ft 124 kts 335°
2026-05-08 04:53 39.88104 -75.23278 23 ft 91 kts 338°
2026-05-08 04:54 39.88465 -75.23466 22 ft 28 kts 337°
2026-05-08 04:54 39.88580 -75.23539 22 ft 8 kts 282°
2026-05-08 04:54 39.88575 -75.23578 22 ft 3 kts 246°
2026-05-08 04:54 39.88561 -75.23634 22 ft 7 kts 276°
2026-05-08 04:55 39.88601 -75.23680 24 ft 10 kts 339°
2026-05-08 04:55 39.88675 -75.23718 23 ft 13 kts 340°
2026-05-08 04:55 39.88738 -75.23674 22 ft 11 kts 66°
2026-05-08 04:55 39.88762 -75.23588 23 ft 10 kts 68°
2026-05-08 04:56 39.88785 -75.23504 22 ft 10 kts 86°
2026-05-08 04:56 39.88749 -75.23446 22 ft 8 kts 161°
2026-05-08 04:56 39.88699 -75.23421 24 ft 8 kts 159°
2026-05-08 04:56 39.88644 -75.23395 22 ft 9 kts 159°
2026-05-08 04:57 39.88590 -75.23368 22 ft 8 kts 159°
2026-05-08 04:57 39.88539 -75.23344 26 ft 8 kts 161°
2026-05-08 04:57 39.88492 -75.23320 22 ft 7 kts 160°
2026-05-08 04:57 39.88445 -75.23297 23 ft 7 kts 159°
2026-05-08 04:58 39.88399 -75.23274 22 ft 7 kts 159°
2026-05-08 04:58 39.88353 -75.23251 24 ft 7 kts 159°
2026-05-08 04:58 39.88293 -75.23217 24 ft 10 kts 153°
2026-05-08 04:58 39.88231 -75.23184 22 ft 9 kts 159°
2026-05-08 04:59 39.88174 -75.23155 22 ft 8 kts 159°
2026-05-08 04:59 39.88119 -75.23128 25 ft 8 kts 159°
2026-05-08 04:59 39.88065 -75.23101 24 ft 8 kts 159°
2026-05-08 04:59 39.88026 -75.23058 22 ft 7 kts 107°
2026-05-08 05:00 39.88030 -75.22995 22 ft 7 kts 76°
2026-05-08 05:00 39.88037 -75.22917 23 ft 12 kts 106°
2026-05-08 05:00 39.87986 -75.22871 22 ft 7 kts 129°
2026-05-08 05:00 39.87987 -75.22813 22 ft 6 kts 77°
2026-05-08 05:01 39.88014 -75.22767 22 ft 8 kts 17°
2026-05-08 05:01 39.88068 -75.22740 24 ft 10 kts 74°
2026-05-08 05:01 39.88085 -75.22656 23 ft 10 kts 71°
2026-05-08 05:01 39.88095 -75.22629 24 ft 0 kts 57°